This is the latest recevied weather packets stored in our database for station/object K2CCS. If no packets are shown the sender has not sent any weather packets the latest 10 day(s).
| Time | Temp. | Humidity | Pressure | Rain* | Wind** | Luminosity | Snow |
|---|---|---|---|---|---|---|---|
| 1777749317 | 11.67° C | 52% | 1015.1 hPa | 0 mm | - | 254 W/m² | - |
| 1777749015 | 11.67° C | 51% | 1015.4 hPa | 0 mm | - | 134 W/m² | - |
| 1777748712 | 11.67° C | 52% | 1015.2 hPa | 0 mm | - | 144 W/m² | - |
| 1777748409 | 11.67° C | 51% | 1015.3 hPa | 0 mm | - | 150 W/m² | - |
| 1777748104 | 12.22° C | 50% | 1015.1 hPa | 0 mm | - | 161 W/m² | - |
| 1777747801 | 12.22° C | 46% | 1015.3 hPa | 0 mm | - | 177 W/m² | - |
| 1777747496 | 12.22° C | 49% | 1015.1 hPa | 0 mm | - | 366 W/m² | - |
| 1777747193 | 12.78° C | 49% | 1015.1 hPa | 0 mm | - | 182 W/m² | - |
| 1777746889 | 12.22° C | 50% | 1015 hPa | 0 mm | - | 258 W/m² | - |
| 1777746584 | 12.22° C | 49% | 1015.3 hPa | 0 mm | - | 271 W/m² | - |
| 1777746280 | 12.78° C | 49% | 1015 hPa | 0 mm | - | 242 W/m² | - |
| 1777745976 | 12.22° C | 51% | 1015.3 hPa | 0 mm | - | 237 W/m² | - |
| 1777745675 | 12.22° C | 51% | 1015.3 hPa | 0 mm | - | 184 W/m² | - |
| 1777745373 | 12.78° C | 51% | 1015.4 hPa | 0 mm | - | 226 W/m² | - |
| 1777745070 | 12.78° C | 51% | 1015.2 hPa | 0 mm | - | 536 W/m² | - |
| 1777744766 | 12.78° C | 50% | 1015.4 hPa | 0 mm | - | 838 W/m² | - |
| 1777744460 | 11.67° C | 54% | 1015.4 hPa | 0 mm | - | 357 W/m² | - |
| 1777744157 | 11.67° C | 52% | 1015.2 hPa | 0 mm | - | 235 W/m² | - |
| 1777743854 | 11.67° C | 52% | 1015.5 hPa | 0 mm | - | 197 W/m² | - |
| 1777743550 | 11.67° C | 52% | 1015.4 hPa | 0 mm | - | 215 W/m² | - |
| 1777743247 | 11.67° C | 54% | 1015.5 hPa | 0 mm | - | 241 W/m² | - |
| 1777742946 | 11.67° C | 54% | 1015.1 hPa | 0 mm | - | 162 W/m² | - |
| 1777742643 | 11.67° C | 54% | 1015.4 hPa | 0 mm | - | 132 W/m² | - |
| 1777742338 | 11.67° C | 55% | 1015.4 hPa | 0 mm | - | 115 W/m² | - |
| 1777742035 | 11.67° C | 59% | 1015.3 hPa | 0 mm | - | 154 W/m² | - |
* Rain latest hour (hover to see other rain measurements)
** Current wind speed in m/s (hover to see current wind gust speed)